Terminal Aerodrome Forecast
Issued by NWS

Home | Current Version | Previous Version | Text Only | Print | Product List | Glossary On
Versions: 1 2 3 4 5 6 7 8 9 10 11 12
000
FTPQ31 PGUM 252325
TAFKMJ
TAF
PKMJ 252325Z 2600/2624 15007KT P6SM VCSH SCT014 BKN050
      TEMPO 2600/2604 4SM SHRA SCT012 OVC030=

USA.gov is the U.S. government's official web portal to all federal, state and local government web resources and services.